[[{"header":{"parameterUnit":"m.s-1","parameterCategory":1,"la1":30.2991,"la2":30.254,"lo1":-89.0895,"lo2":-89.0444,"dy":0.0017,"dx":0.0017,"nx":28,"ny":28,"refTime":"2024-06-06T03:00:00:Z","depth":0,"parameterNumber":2,"parameterNumberName":"U-component_of_WINDS"},"data":[0,0,0,0,0,0,0,0,0,0,0,0,0,0,0,0,0,0,0,0,0,0,0,0,0,0,0,0,0,0,0,0,0,0,0,0,0,0,0,0,0,0,0,0,0,0,0,0,0,0,0,0,0,0,0,0,0,0,1.6253,1.6253,0,1.6231,1.6231,1.6231,1.6235,1.6235,1.6235,1.6236,1.6207,1.6206,1.6204,0,0,0,0,0,0,0,0,0,0,0,0,0,1.6293,1.6292,1.6253,1.6253,1.6252,1.6231,1.6231,1.6231,1.6234,1.6235,1.6235,1.6236,1.6207,1.6206,1.6204,0,0,0,0,0,0,0,0,0,0,0,0,0,1.6274,1.6292,1.6253,1.6252,1.6252,1.6231,1.6231,1.6231,1.6234,1.6235,1.6236,1.6236,1.6207,1.6206,1.6204,1.6181,0,0,1.6199,1.6198,0,0,0,0,0,0,0,0,1.6275,1.6272,1.6252,1.6252,1.6252,1.6236,1.6234,1.6214,1.6234,1.6241,1.6236,1.6236,1.6216,1.6213,1.6208,1.618,1.6179,1.6199,1.6198,1.6197,1.6196,0,0,0,0,0,0,0,1.6276,1.6273,1.6244,1.6252,1.6252,1.6251,1.6249,1.6231,1.6225,1.624,1.624,1.6238,1.6215,1.6209,1.6207,1.6178,1.6199,1.6197,1.6196,1.6195,1.6133,1.6132,0,0,0,0,0,0,1.6279,1.6274,1.6245,1.6243,1.6265,1.625,1.6248,1.6241,1.6225,1.6223,1.6238,1.6238,1.6212,1.6209,1.6206,1.618,1.6197,1.6195,1.6194,1.6133,1.6132,1.6132,0,0,0,0,0,0,1.628,1.6276,1.6246,1.6259,1.6255,1.6249,1.6241,1.624,1.6234,1.6223,1.6222,1.6233,1.6212,1.6208,1.6188,1.6179,1.6194,1.6193,1.6134,1.6133,1.6132,1.6126,0,0,0,0,0,0,1.6281,1.6276,1.6269,1.6259,1.6255,1.623,1.624,1.6239,1.6232,1.6232,1.6218,1.6216,1.6212,1.6191,1.6187,1.6176,1.6192,1.6135,1.6134,1.6132,1.6127,1.6125,1.6123,0,0,0,0,0,1.6282,1.6266,1.6268,1.6265,1.6245,1.6229,1.6227,1.6224,1.6231,1.6222,1.6216,1.6217,1.6181,1.6189,1.6184,1.6173,1.6135,1.6134,1.6133,1.6128,1.6125,1.6123,0,0,0,0,0,0,1.6272,1.6264,1.6267,1.6247,1.6239,1.623,1.6219,1.6221,1.6209,1.621,1.6206,1.6203,1.6183,1.6176,1.6185,1.6151,1.6159,1.6156,1.6157,1.6154,1.6152,1.6154,1.619,0,0,0,0,0,1.6268,1.6257,1.6251,1.6234,1.623,1.6226,1.6218,1.6218,1.6208,1.6204,1.6196,1.6185,1.6172,1.6162,1.6149,1.6126,1.6123,1.6116,1.6114,1.6113,1.6111,1.6099,1.6096,1.6127,1.6127,1.6127,0,0,1.6258,1.6253,1.6246,1.6232,1.6225,1.6214,1.6222,1.6209,1.62,1.6201,1.6183,1.6177,1.6164,1.6144,1.6134,1.6137,1.6102,1.6111,1.611,1.6108,1.6098,1.6095,1.6092,1.6126,1.6126,1.6126,0,0,1.6235,1.623,1.6216,1.6211,1.6202,1.6199,1.6196,1.6187,1.6184,1.6166,1.6168,1.6156,1.6132,1.6124,1.6116,1.6093,1.6093,1.6088,1.6078,1.6067,1.6065,1.6062,1.6055,1.6052,1.6086,1.6086,1.6086,0,1.6223,1.6207,1.6208,1.6196,1.619,1.6194,1.6179,1.6173,1.6159,1.6154,1.6159,1.6131,1.6123,1.6101,1.6095,1.6089,1.6085,1.609,1.6065,1.6063,1.6061,1.6054,1.6051,1.6086,1.6086,1.6086,1.6086,0,1.6194,1.6183,1.6173,1.6163,1.6156,1.6142,1.614,1.6132,1.6133,1.6129,1.6111,1.6102,1.6088,1.6083,1.6081,1.6061,1.6063,1.6067,1.6074,1.6058,1.6051,1.6048,1.6085,1.6085,1.6085,1.6085,0,0,1.6162,1.6155,1.6151,1.6148,1.6139,1.613,1.6117,1.6106,1.6099,1.609,1.6079,1.606,1.6064,1.6056,1.6054,1.6044,1.6028,1.6049,1.6049,1.6046,1.6005,1.6003,1.6,1.6029,1.6028,1.6027,1.6006,0,1.6139,1.6118,1.6119,1.6099,1.6089,1.6093,1.6082,1.6075,1.6072,1.6062,1.6058,1.6045,1.6051,1.6046,1.6037,1.6032,1.6019,1.6033,1.6017,1.6016,1.602,1.5996,1.5993,1.5973,1.6004,1.6003,1.6003,0,1.6108,1.6101,1.6081,1.6076,1.6072,1.6062,1.6053,1.6043,1.6036,1.6034,1.6027,1.6027,1.6013,1.6022,1.6002,1.6012,1.6005,1.6002,1.6001,1.5999,1.6008,1.5993,1.5967,1.5964,1.5998,1.5999,1.5999,0,1.6088,1.6073,1.606,1.6056,1.605,1.6043,1.604,1.6033,1.6027,1.6018,1.6014,1.6003,1.5997,1.5988,1.5985,1.5991,1.5966,1.5974,1.5963,1.5964,1.5957,1.5958,1.5929,1.5953,1.5953,1.5953,1.5953,0,1.6062,1.6049,1.6051,1.6042,1.6028,1.603,1.6015,1.6013,1.6007,1.5997,1.6,1.599,1.5988,1.5978,1.5975,1.596,1.5957,1.5955,1.5954,1.5954,1.5955,1.595,1.5951,1.5952,1.5953,1.5953,1.5953,0,1.6036,1.6037,1.6023,1.6019,1.6018,1.6008,1.6004,1.5996,1.5994,1.5982,1.5979,1.5976,1.5964,1.5961,1.5946,1.5945,1.5927,1.5928,1.5931,1.5931,1.5921,1.5922,1.5888,1.5884,1.591,1.591,1.591,0,1.602,1.601,1.6007,1.6002,1.5999,1.599,1.5985,1.5986,1.598,1.5972,1.5965,1.5954,1.5946,1.5927,1.5922,1.5912,1.5912,1.5901,1.591,1.5911,1.5912,1.5913,1.5912,1.5899,1.5899,1.5898,1.5898,0,1.599,1.5991,1.5984,1.5978,1.5972,1.5966,1.5961,1.5956,1.5957,1.595,1.594,1.5933,1.592,1.591,1.59,1.5895,1.5896,1.5896,1.5893,1.5893,1.5895,1.5895,1.5926,1.5896,1.5896,1.5897,1.5897,1.5897,1.5968,1.5961,1.5958,1.5951,1.5947,1.5943,1.5936,1.5934,1.5926,1.5917,1.5918,1.5907,1.5901,1.5888,1.5883,1.5874,1.5877,1.5872,1.5871,1.587,1.587,1.5898,1.5872,1.5872,1.5872,1.5872,1.5872,0,1.5939,1.5938,1.5932,1.5926,1.592,1.5925,1.5919,1.5914,1.5905,1.59,1.5893,1.5881,1.5872,1.5868,1.5858,1.5852,1.5852,1.5849,1.5849,1.5848,1.5867,1.5871,1.5849,1.5849,1.5849,1.5849,1.5849,1.5849,1.5924,1.5912,1.5913,1.59,1.5899,1.589,1.5887,1.5882,1.5879,1.5867,1.586,1.5859,1.5854,1.5845,1.5836,1.5835,1.5831,1.5828,1.5827,1.5845,1.5847,1.5849,1.5853,1.5827,1.5827,1.5809,1.5809,1.5809]},{"header":{"parameterUnit":"m.s-1","parameterCategory":1,"la1":30.2991,"la2":30.254,"lo1":-89.0895,"lo2":-89.0444,"dy":0.0017,"dx":0.0017,"nx":28,"ny":28,"refTime":"2024-06-06T03:00:00:Z","depth":0,"parameterNumber":3,"parameterNumberName":"V-component_of_WINDS"},"data":[0,0,0,0,0,0,0,0,0,0,0,0,0,0,0,0,0,0,0,0,0,0,0,0,0,0,0,0,0,0,0,0,0,0,0,0,0,0,0,0,0,0,0,0,0,0,0,0,0,0,0,0,0,0,0,0,0,0,2.5143,2.5142,0,2.5082,2.5081,2.508,2.5035,2.5035,2.5034,2.5034,2.4965,2.4963,2.4962,0,0,0,0,0,0,0,0,0,0,0,0,0,2.5217,2.5216,2.5143,2.5142,2.5142,2.5082,2.5081,2.508,2.5035,2.5035,2.5034,2.5034,2.4965,2.4964,2.4962,0,0,0,0,0,0,0,0,0,0,0,0,0,2.5173,2.5215,2.5143,2.5112,2.5109,2.5082,2.5081,2.508,2.5035,2.5035,2.5034,2.5034,2.4966,2.4964,2.4962,2.4959,0,0,2.4955,2.4954,0,0,0,0,0,0,0,0,2.5175,2.517,2.5117,2.5114,2.511,2.5066,2.5081,2.5039,2.5035,2.5063,2.5034,2.5033,2.4998,2.4993,2.4983,2.4956,2.4953,2.4954,2.4953,2.4952,2.4952,0,0,0,0,0,0,0,2.5178,2.5172,2.5119,2.5117,2.5112,2.51,2.5093,2.5073,2.5034,2.506,2.5057,2.5051,2.4996,2.4985,2.4981,2.4952,2.4955,2.4953,2.4951,2.495,2.4919,2.492,0,0,0,0,0,0,2.5187,2.5175,2.5121,2.5117,2.5142,2.5099,2.5091,2.508,2.5034,2.5027,2.5051,2.5049,2.4989,2.4984,2.4978,2.4973,2.4952,2.495,2.4949,2.4919,2.4919,2.492,0,0,0,0,0,0,2.5189,2.5183,2.5123,2.5145,2.5137,2.5098,2.5086,2.5079,2.5068,2.5028,2.502,2.5048,2.4989,2.4982,2.4965,2.497,2.4949,2.4947,2.4918,2.4919,2.492,2.4961,0,0,0,0,0,0,2.5191,2.5184,2.5183,2.5146,2.5136,2.5112,2.5087,2.5079,2.5065,2.5062,2.5022,2.5015,2.4988,2.4968,2.4962,2.4966,2.4945,2.4918,2.4919,2.492,2.4959,2.4964,2.4967,0,0,0,0,0,2.5194,2.5196,2.5184,2.5177,2.5135,2.5113,2.5107,2.5077,2.5066,2.5065,2.5039,2.5016,2.497,2.4967,2.496,2.4963,2.4917,2.4918,2.4919,2.4958,2.4963,2.4967,0,0,0,0,0,0,2.5233,2.519,2.5176,2.5166,2.5144,2.5105,2.5102,2.5083,2.5062,2.5059,2.5021,2.5012,2.5,2.4979,2.4976,2.4958,2.4941,2.4941,2.4972,2.4977,2.498,2.4985,2.4943,0,0,0,0,0,2.5241,2.5228,2.5191,2.5186,2.5175,2.5141,2.513,2.511,2.5084,2.5073,2.5046,2.502,2.5,2.4987,2.4966,2.4956,2.4947,2.4955,2.4959,2.4962,2.4962,2.4956,2.496,2.4924,2.4924,2.4924,0,0,2.5256,2.5231,2.5225,2.5193,2.5173,2.5159,2.5133,2.5119,2.5108,2.507,2.5054,2.5033,2.5001,2.4988,2.4981,2.4971,2.497,2.4964,2.4967,2.4965,2.4958,2.4961,2.4964,2.4925,2.4925,2.4924,0,0,2.5277,2.5258,2.5252,2.5233,2.5204,2.5181,2.518,2.5144,2.513,2.5113,2.5084,2.5069,2.5035,2.5014,2.4999,2.5014,2.4992,2.5008,2.5028,2.5022,2.5025,2.5027,2.5033,2.5035,2.5008,2.5008,2.5008,0,2.53,2.528,2.525,2.5239,2.5226,2.5193,2.5186,2.5168,2.5133,2.5124,2.5114,2.5071,2.5047,2.5029,2.5033,2.5022,2.5019,2.5012,2.5027,2.5029,2.5031,2.5036,2.5038,2.501,2.501,2.501,2.501,0,2.5308,2.5295,2.5293,2.5263,2.5249,2.524,2.5208,2.5197,2.5178,2.5156,2.5139,2.511,2.5083,2.5077,2.5057,2.5056,2.5051,2.5035,2.5016,2.5037,2.5041,2.5042,2.5013,2.5013,2.5012,2.5012,0,0,2.5352,2.5307,2.5307,2.5293,2.5259,2.5247,2.5236,2.5212,2.5203,2.518,2.5169,2.5142,2.5127,2.511,2.5087,2.5082,2.5097,2.5066,2.5065,2.5073,2.5094,2.5107,2.511,2.5082,2.5082,2.5083,2.5097,0,2.5368,2.5349,2.5323,2.5311,2.5299,2.5268,2.5258,2.5236,2.5215,2.52,2.5176,2.5157,2.5139,2.5128,2.5122,2.5096,2.51,2.5095,2.5071,2.507,2.508,2.5112,2.5125,2.5141,2.5098,2.5098,2.5099,0,2.5384,2.5365,2.5354,2.5322,2.5315,2.5307,2.5284,2.527,2.5243,2.5228,2.5211,2.5187,2.5172,2.5156,2.5135,2.5132,2.5121,2.5107,2.5106,2.5103,2.5086,2.511,2.5144,2.5147,2.5101,2.51,2.51,0,2.5417,2.5388,2.5378,2.5367,2.533,2.5325,2.5309,2.5282,2.5269,2.5248,2.5239,2.5216,2.5203,2.5184,2.5154,2.5145,2.5137,2.5118,2.5123,2.5124,2.5123,2.5124,2.5157,2.5115,2.5115,2.5115,2.5115,0,2.5438,2.5432,2.5393,2.5387,2.5379,2.5349,2.5341,2.5322,2.5299,2.5287,2.5258,2.5247,2.5209,2.5193,2.5169,2.5156,2.515,2.5137,2.5131,2.514,2.5142,2.5132,2.513,2.5116,2.5116,2.5116,2.5115,0,2.5474,2.5447,2.5434,2.5401,2.5392,2.5388,2.5359,2.5351,2.5329,2.5315,2.5309,2.5275,2.5255,2.5224,2.5194,2.5178,2.5169,2.5158,2.5179,2.5175,2.5183,2.5183,2.5211,2.5214,2.517,2.5171,2.5171,0,2.5489,2.5484,2.5451,2.5442,2.5428,2.5414,2.5402,2.5371,2.5359,2.533,2.5325,2.5304,2.5285,2.5255,2.5226,2.5203,2.5192,2.5203,2.5188,2.5198,2.5193,2.5194,2.5193,2.5207,2.5208,2.5208,2.5209,0,2.5519,2.5506,2.5491,2.5472,2.5459,2.5441,2.5422,2.5416,2.5381,2.5369,2.535,2.5336,2.5307,2.5286,2.526,2.5241,2.5219,2.5214,2.5214,2.5224,2.5236,2.523,2.5189,2.5213,2.5213,2.5212,2.5212,2.5212,2.5545,2.554,2.5516,2.55,2.5483,2.5467,2.5458,2.5436,2.5421,2.5397,2.5379,2.5361,2.5334,2.5297,2.528,2.5264,2.5255,2.5255,2.5255,2.5255,2.5259,2.5239,2.5259,2.5259,2.5259,2.5259,2.5258,0,2.5574,2.5557,2.5543,2.5519,2.5507,2.5489,2.5467,2.5458,2.5443,2.5422,2.5405,2.5383,2.5363,2.5333,2.531,2.5304,2.5293,2.5299,2.5299,2.5295,2.5269,2.5271,2.5308,2.5308,2.5308,2.5308,2.5308,2.5308,2.5587,2.5578,2.5563,2.5545,2.5528,2.5513,2.5502,2.5486,2.5469,2.5447,2.5431,2.5413,2.5387,2.5363,2.5343,2.5335,2.5328,2.5337,2.5325,2.5301,2.5297,2.5293,2.5295,2.5335,2.5336,2.5353,2.5353,2.5353]}]]